| time (UTC) | temp F | wind direction | speed knots | gust knots | rain 1hr in | rain 24hr in | rain mn in | humidity % | barometer mb |
| 20260507162504 | 72 | 52 | 3.5 | 4.3 | 0.00 | 0.00 | 0.00 | 38 | 1009.7 |
| 20260507162004 | 72 | 77 | 4.3 | 5.2 | 0.00 | 0.00 | 0.00 | 41 | 1009.8 |
| 20260507161503 | 72 | 58 | 3.5 | 5.2 | 0.00 | 0.00 | 0.00 | 41 | 1009.4 |
| 20260507161216 | 72 | 61 | 3.5 | 5.2 | 0.00 | 0.00 | 0.00 | 40 | 1009.3 |
| 20260507160504 | 73 | 46 | 5.2 | 7.0 | 0.00 | 0.00 | 0.00 | 40 | 1009.4 |
| 20260507160217 | 73 | 58 | 5.2 | 7.0 | 0.00 | 0.00 | 0.00 | 40 | 1009.6 |
| 20260507155503 | 74 | 42 | 2.6 | 7.0 | 0.00 | 0.00 | 0.00 | 38 | 1009.4 |
| 20260507155004 | 74 | 332 | 2.6 | 4.3 | 0.00 | 0.00 | 0.00 | 40 | 1009.3 |
| 20260507154504 | 73 | 326 | 3.5 | 4.3 | 0.00 | 0.00 | 0.00 | 39 | 1009.5 |
| 20260507154003 | 74 | 324 | 2.6 | 3.5 | 0.00 | 0.00 | 0.00 | 40 | 1009.2 |
| 20260507153504 | 73 | 326 | 3.5 | 4.3 | 0.00 | 0.00 | 0.00 | 39 | 1009.6 |
| 20260507153004 | 73 | 317 | 4.3 | 5.2 | 0.00 | 0.00 | 0.00 | 36 | 1009.5 |
| 20260507152504 | 73 | 311 | 4.3 | 7.0 | 0.00 | 0.00 | 0.00 | 39 | 1009.5 |
| 20260507152003 | 73 | 330 | 5.2 | 7.0 | 0.00 | 0.00 | 0.00 | 40 | 1009.6 |
| 20260507151714 | 73 | 354 | 5.2 | 6.1 | 0.00 | 0.00 | 0.00 | 41 | 1009.7 |
| 20260507151004 | 74 | 10 | 4.3 | 7.0 | 0.00 | 0.00 | 0.00 | 41 | 1009.5 |
| 20260507150504 | 73 | 340 | 5.2 | 7.0 | 0.00 | 0.00 | 0.00 | 44 | 1009.5 |
| 20260507150003 | 73 | 306 | 5.2 | 6.1 | 0.00 | 0.00 | 0.00 | 46 | 1009.7 |
| 20260507145503 | 73 | 320 | 6.1 | 7.8 | 0.00 | 0.00 | 0.00 | 42 | 1010.0 |
| 20260507145004 | 72 | 331 | 6.1 | 7.8 | 0.00 | 0.00 | 0.00 | 41 | 1009.8 |
| 20260507144503 | 72 | 327 | 6.1 | 6.1 | 0.00 | 0.00 | 0.00 | 41 | 1009.9 |
| 20260507144003 | 72 | 310 | 6.1 | 7.8 | 0.00 | 0.00 | 0.00 | 41 | 1010.1 |
| 20260507143503 | 72 | 312 | 7.0 | 7.8 | 0.00 | 0.00 | 0.00 | 42 | 1009.8 |
| 20260507143003 | 72 | 310 | 6.1 | 7.8 | 0.00 | 0.00 | 0.00 | 41 | 1009.9 |
| 20260507142504 | 72 | 302 | 6.1 | 8.7 | 0.00 | 0.00 | 0.00 | 44 | 1009.9 |
| 20260507142004 | 72 | 308 | 6.1 | 8.7 | 0.00 | 0.00 | 0.00 | 49 | 1010.0 |
| 20260507141714 | 72 | 312 | 6.1 | 7.0 | 0.00 | 0.00 | 0.00 | 45 | 1010.1 |
| 20260507141217 | 73 | 312 | 5.2 | 5.2 | 0.00 | 0.00 | 0.00 | 46 | 1009.9 |
| 20260507140715 | 73 | 320 | 5.2 | 6.1 | 0.00 | 0.00 | 0.00 | 43 | 1009.9 |
| 20260507140004 | 73 | 347 | 4.3 | 6.1 | 0.00 | 0.00 | 0.00 | 43 | 1010.0 |
| 20260507135503 | 73 | 350 | 3.5 | 6.1 | 0.00 | 0.00 | 0.00 | 45 | 1009.8 |
| 20260507135214 | 73 | 355 | 3.5 | 5.2 | 0.00 | 0.00 | 0.00 | 46 | 1009.9 |
| 20260507134505 | 72 | 17 | 3.5 | 4.3 | 0.00 | 0.00 | 0.00 | 50 | 1009.9 |
| 20260507134004 | 72 | 37 | 3.5 | 4.3 | 0.00 | 0.00 | 0.00 | 51 | 1009.9 |
| 20260507133504 | 72 | 62 | 3.5 | 3.5 | 0.00 | 0.00 | 0.00 | 52 | 1009.9 |
| 20260507133004 | 71 | 39 | 4.3 | 6.1 | 0.00 | 0.00 | 0.00 | 54 | 1010.3 |
| 20260507132503 | 71 | 16 | 5.2 | 6.1 | 0.00 | 0.00 | 0.00 | 54 | 1010.1 |
| 20260507132004 | 71 | 12 | 4.3 | 6.1 | 0.00 | 0.00 | 0.00 | 53 | 1010.3 |
| 20260507131503 | 72 | 58 | 4.3 | 5.2 | 0.00 | 0.00 | 0.00 | 52 | 1010.2 |
| 20260507131003 | 71 | 70 | 4.3 | 5.2 | 0.00 | 0.00 | 0.00 | 53 | 1010.4 |
| 20260507130503 | 72 | 78 | 5.2 | 7.0 | 0.00 | 0.00 | 0.00 | 52 | 1010.2 |
| 20260507130006 | 72 | 112 | 3.5 | 7.0 | 0.00 | 0.00 | 0.00 | 50 | 1010.3 |
| 20260507125717 | 73 | 313 | 2.6 | 5.2 | 0.00 | 0.00 | 0.00 | 43 | 1010.4 |
| 20260507125215 | 72 | 309 | 3.5 | 7.8 | 0.00 | 0.00 | 0.00 | 37 | 1010.3 |
| 20260507124503 | 72 | 332 | 5.2 | 7.8 | 0.00 | 0.00 | 0.00 | 34 | 1010.6 |
| 20260507124004 | 73 | 357 | 5.2 | 8.7 | 0.00 | 0.00 | 0.00 | 35 | 1010.3 |
| 20260507123504 | 72 | 339 | 5.2 | 8.7 | 0.00 | 0.00 | 0.00 | 35 | 1010.5 |
| 20260507123003 | 72 | 320 | 6.1 | 8.7 | 0.00 | 0.00 | 0.00 | 37 | 1010.4 |
| 20260507122503 | 72 | 326 | 7.8 | 10.4 | 0.00 | 0.00 | 0.00 | 36 | 1010.3 |
| 20260507122004 | 72 | 324 | 8.7 | 10.4 | 0.00 | 0.00 | 0.00 | 37 | 1010.5 |
| 20260507121504 | 72 | 340 | 7.8 | 10.4 | 0.00 | 0.00 | 0.00 | 40 | 1010.3 |
| 20260507121003 | 72 | 25 | 7.0 | 10.4 | 0.00 | 0.00 | 0.00 | 40 | 1010.7 |
| 20260507120503 | 72 | 3 | 7.0 | 9.6 | 0.00 | 0.00 | 0.00 | 42 | 1010.5 |
| 20260507120004 | 72 | 323 | 9.6 | 13.9 | 0.00 | 0.00 | 0.00 | 42 | 1010.2 |
| 20260507115504 | 71 | 323 | 11.3 | 13.9 | 0.00 | 0.00 | 0.00 | 43 | 1010.4 |
| 20260507115215 | 71 | 332 | 10.4 | 13.9 | 0.00 | 0.00 | 0.00 | 43 | 1010.3 |
| 20260507114713 | 71 | 330 | 9.6 | 11.3 | 0.00 | 0.00 | 0.00 | 46 | 1010.3 |
| 20260507114216 | 70 | 324 | 10.4 | 13.9 | 0.00 | 0.00 | 0.00 | 57 | 1010.3 |
| 20260507113503 | 71 | 316 | 10.4 | 13.9 | 0.00 | 0.00 | 0.00 | 54 | 1010.2 |
| 20260507113004 | 71 | 318 | 8.7 | 11.3 | 0.00 | 0.00 | 0.00 | 53 | 1010.0 |
| 20260507112503 | 72 | 313 | 6.1 | 7.8 | 0.00 | 0.00 | 0.00 | 52 | 1010.0 |
| 20260507112003 | 73 | 316 | 6.1 | 7.8 | 0.00 | 0.00 | 0.00 | 52 | 1010.2 |
| 20260507111504 | 72 | 315 | 6.1 | 7.8 | 0.00 | 0.00 | 0.00 | 51 | 1010.3 |
| 20260507111003 | 72 | 259 | 4.3 | 7.8 | 0.00 | 0.00 | 0.00 | 51 | 1010.5 |
| 20260507110503 | 72 | 251 | 4.3 | 6.1 | 0.00 | 0.00 | 0.00 | 54 | 1010.5 |
| 20260507110004 | 72 | 271 | 4.3 | 6.1 | 0.00 | 0.00 | 0.00 | 54 | 1010.4 |
| 20260507105713 | 71 | 278 | 4.3 | 6.1 | 0.00 | 0.00 | 0.00 | 54 | 1010.6 |
| 20260507105216 | 71 | 294 | 5.2 | 7.0 | 0.00 | 0.00 | 0.00 | 54 | 1010.8 |
| 20260507104503 | 70 | 308 | 6.1 | 7.8 | 0.00 | 0.00 | 0.00 | 61 | 1010.8 |
| 20260507104004 | 70 | 300 | 7.0 | 9.6 | 0.00 | 0.00 | 0.00 | 63 | 1011.0 |
| 20260507103504 | 70 | 316 | 7.8 | 10.4 | 0.00 | 0.00 | 0.00 | 63 | 1011.2 |
| 20260507103004 | 70 | 327 | 7.8 | 13.0 | 0.00 | 0.00 | 0.00 | 62 | 1011.1 |
| 20260507102503 | 72 | 332 | 7.0 | 13.0 | 0.00 | 0.00 | 0.00 | 60 | 1011.1 |
| 20260507102214 | 72 | 336 | 7.0 | 13.0 | 0.00 | 0.00 | 0.00 | 60 | 1011.2 |
| 20260507101503 | 73 | 341 | 4.3 | 7.0 | 0.00 | 0.00 | 0.00 | 53 | 1011.0 |
| 20260507101215 | 72 | 310 | 5.2 | 7.0 | 0.00 | 0.00 | 0.00 | 57 | 1011.3 |
| 20260507100503 | 70 | 280 | 6.1 | 6.1 | 0.00 | 0.00 | 0.00 | 65 | 1010.7 |
| 20260507100004 | 70 | 298 | 6.1 | 7.0 | 0.00 | 0.00 | 0.00 | 65 | 1011.0 |
| 20260507095503 | 69 | 313 | 7.0 | 10.4 | 0.00 | 0.00 | 0.00 | 69 | 1011.0 |
| 20260507095217 | 69 | 324 | 7.8 | 11.3 | 0.00 | 0.00 | 0.00 | 70 | 1011.2 |
| 20260507094503 | 69 | 326 | 9.6 | 11.3 | 0.00 | 0.00 | 0.00 | 70 | 1011.3 |
| 20260507094004 | 68 | 324 | 10.4 | 13.0 | 0.00 | 0.00 | 0.00 | 70 | 1011.3 |
| 20260507093503 | 69 | 329 | 9.6 | 13.0 | 0.00 | 0.00 | 0.00 | 70 | 1011.1 |
| 20260507093003 | 70 | 320 | 8.7 | 9.6 | 0.00 | 0.00 | 0.00 | 68 | 1011.3 |
| 20260507092504 | 71 | 288 | 8.7 | 11.3 | 0.00 | 0.00 | 0.00 | 65 | 1011.1 |
| 20260507092003 | 71 | 279 | 7.0 | 11.3 | 0.00 | 0.00 | 0.00 | 60 | 1011.2 |
| 20260507091504 | 71 | 298 | 6.1 | 7.0 | 0.00 | 0.00 | 0.00 | 57 | 1011.4 |
| 20260507091003 | 71 | 314 | 5.2 | 7.0 | 0.00 | 0.00 | 0.00 | 56 | 1011.3 |
| 20260507090503 | 71 | 311 | 4.3 | 5.2 | 0.00 | 0.00 | 0.00 | 58 | 1011.3 |
| 20260507090004 | 70 | 314 | 5.2 | 7.0 | 0.00 | 0.00 | 0.00 | 62 | 1011.2 |
| 20260507085503 | 70 | 315 | 7.0 | 9.6 | 0.00 | 0.00 | 0.00 | 63 | 1011.1 |
| 20260507085217 | 70 | 308 | 7.0 | 9.6 | 0.00 | 0.00 | 0.00 | 64 | 1011.4 |
| 20260507084504 | 70 | 292 | 6.1 | 7.8 | 0.00 | 0.00 | 0.00 | 62 | 1011.7 |
| 20260507084004 | 70 | 306 | 6.1 | 7.8 | 0.00 | 0.00 | 0.00 | 63 | 1011.5 |
| 20260507083503 | 69 | 318 | 6.1 | 7.8 | 0.00 | 0.00 | 0.00 | 63 | 1011.6 |
| 20260507083005 | 69 | 318 | 7.0 | 7.8 | 0.00 | 0.00 | 0.00 | 66 | 1011.4 |
| 20260507082503 | 70 | 330 | 6.1 | 7.8 | 0.00 | 0.00 | 0.00 | 64 | 1011.5 |
| 20260507082215 | 70 | 338 | 6.1 | 7.8 | 0.00 | 0.00 | 0.00 | 64 | 1011.4 |
| 20260507081504 | 70 | 338 | 6.1 | 8.7 | 0.00 | 0.00 | 0.00 | 66 | 1011.5 |
| 20260507081004 | 70 | 343 | 5.2 | 8.7 | 0.00 | 0.00 | 0.00 | 65 | 1011.5 |
| 20260507080503 | 70 | 360 | 3.5 | 5.2 | 0.00 | 0.00 | 0.00 | 63 | 1011.9 |
| 20260507080005 | 70 | 336 | 4.3 | 5.2 | 0.00 | 0.00 | 0.00 | 63 | 1011.6 |
| 20260507075715 | 70 | 328 | 4.3 | 5.2 | 0.00 | 0.00 | 0.00 | 63 | 1011.8 |
| 20260507075003 | 70 | 335 | 5.2 | 5.2 | 0.00 | 0.00 | 0.00 | 64 | 1012.1 |
| 20260507074716 | 69 | 335 | 4.3 | 5.2 | 0.00 | 0.00 | 0.00 | 63 | 1012.0 |
| 20260507074003 | 69 | 306 | 3.5 | 5.2 | 0.00 | 0.00 | 0.00 | 67 | 1012.1 |
| 20260507073503 | 69 | 318 | 2.6 | 5.2 | 0.00 | 0.00 | 0.00 | 66 | 1012.1 |
| 20260507073004 | 69 | 350 | 2.6 | 3.5 | 0.00 | 0.00 | 0.00 | 68 | 1012.1 |
| 20260507072504 | 69 | 342 | 3.5 | 3.5 | 0.00 | 0.00 | 0.00 | 68 | 1012.1 |
| 20260507072006 | 69 | 333 | 2.6 | 3.5 | 0.00 | 0.00 | 0.00 | 67 | 1011.8 |
| 20260507071714 | 70 | 334 | 1.7 | 2.6 | 0.00 | 0.00 | 0.00 | 67 | 1011.7 |
| 20260507071003 | 69 | 343 | 1.7 | 2.6 | 0.00 | 0.00 | 0.00 | 66 | 1011.8 |
| 20260507070506 | 69 | 354 | 1.7 | 6.1 | 0.00 | 0.00 | 0.00 | 68 | 1012.0 |
| 20260507070217 | 69 | 51 | 2.6 | 6.1 | 0.00 | 0.00 | 0.00 | 69 | 1012.0 |
| 20260507065504 | 68 | 64 | 4.3 | 6.1 | 0.00 | 0.00 | 0.00 | 70 | 1011.8 |
| 20260507065004 | 67 | 57 | 4.3 | 5.2 | 0.00 | 0.00 | 0.00 | 71 | 1012.0 |
| 20260507064716 | 67 | 33 | 3.5 | 5.2 | 0.00 | 0.00 | 0.00 | 71 | 1011.9 |
| 20260507064003 | 67 | 66 | 3.5 | 5.2 | 0.00 | 0.00 | 0.00 | 73 | 1012.0 |
| 20260507063503 | 67 | 42 | 3.5 | 5.2 | 0.00 | 0.00 | 0.00 | 73 | 1012.0 |
| 20260507063003 | 66 | 28 | 3.5 | 5.2 | 0.00 | 0.00 | 0.00 | 73 | 1011.9 |
| 20260507062503 | 66 | 34 | 2.6 | 4.3 | 0.00 | 0.00 | 0.00 | 77 | 1011.8 |
| 20260507062004 | 66 | 327 | 1.7 | 2.6 | 0.00 | 0.00 | 0.00 | 79 | 1012.0 |
| 20260507061504 | 65 | 324 | 1.7 | 2.6 | 0.00 | 0.00 | 0.00 | 80 | 1012.1 |
| 20260507061004 | 65 | 324 | 1.7 | 2.6 | 0.00 | 0.00 | 0.00 | 81 | 1011.9 |
| 20260507060504 | 64 | 323 | 1.7 | 1.7 | 0.00 | 0.00 | 0.00 | 83 | 1012.0 |
| 20260507060004 | 64 | 326 | 0.9 | 1.7 | 0.00 | 0.00 | 0.00 | 83 | 1012.0 |
| 20260507055503 | 64 | 314 | 1.7 | 2.6 | 0.00 | 0.00 | 0.00 | 83 | 1012.0 |
| 20260507055003 | 63 | 315 | 1.7 | 2.6 | 0.00 | 0.00 | 0.00 | 83 | 1012.0 |
| 20260507054717 | 63 | 315 | 1.7 | 2.6 | 0.00 | 0.00 | 0.00 | 83 | 1011.9 |
| 20260507054215 | 63 | 315 | 1.7 | 2.6 | 0.00 | 0.00 | 0.00 | 83 | 1012.0 |
| 20260507053503 | 63 | 315 | 2.6 | 2.6 | 0.00 | 0.00 | 0.00 | 84 | 1011.7 |
| 20260507053004 | 63 | 318 | 2.6 | 2.6 | 0.00 | 0.00 | 0.00 | 84 | 1011.7 |
| 20260507052504 | 63 | 331 | 1.7 | 2.6 | 0.00 | 0.00 | 0.00 | 85 | 1011.4 |
| 20260507052003 | 63 | 330 | 1.7 | 2.6 | 0.00 | 0.00 | 0.00 | 85 | 1011.6 |
| 20260507051503 | 62 | 317 | 1.7 | 1.7 | 0.00 | 0.00 | 0.00 | 85 | 1011.8 |
| 20260507051003 | 62 | 315 | 1.7 | 1.7 | 0.00 | 0.00 | 0.00 | 85 | 1011.9 |
| 20260507050503 | 62 | 315 | 1.7 | 1.7 | 0.00 | 0.00 | 0.00 | 85 | 1011.8 |
| 20260507050003 | 62 | 315 | 1.7 | 1.7 | 0.00 | 0.00 | 0.00 | 85 | 1011.9 |
| 20260507045504 | 62 | 324 | 0.9 | 1.7 | 0.00 | 0.00 | 0.00 | 85 | 1011.9 |
| 20260507045003 | 62 | 350 | 0.9 | 1.7 | 0.00 | 0.00 | 0.00 | 85 | 1011.6 |
| 20260507044503 | 62 | 337 | 0.9 | 1.7 | 0.00 | 0.00 | 0.00 | 85 | 1011.6 |
| 20260507044003 | 62 | 315 | 0.9 | 1.7 | 0.00 | 0.00 | 0.00 | 84 | 1011.6 |
| 20260507043504 | 62 | 315 | 0.9 | 1.7 | 0.00 | 0.00 | 0.00 | 84 | 1011.8 |
| 20260507043004 | 62 | 315 | 0.9 | 1.7 | 0.00 | 0.00 | 0.00 | 84 | 1011.9 |
| 20260507042503 | 62 | 315 | 1.7 | 1.7 | 0.00 | 0.00 | 0.00 | 84 | 1011.9 |
| 20260507042213 | 62 | 315 | 1.7 | 1.7 | 0.00 | 0.00 | 0.00 | 84 | 1011.8 |
| 20260507041503 | 62 | 315 | 1.7 | 1.7 | 0.00 | 0.00 | 0.00 | 83 | 1011.8 |
| 20260507041003 | 62 | 315 | 1.7 | 1.7 | 0.00 | 0.00 | 0.00 | 83 | 1012.1 |
| 20260507040503 | 62 | 315 | 1.7 | 1.7 | 0.00 | 0.00 | 0.00 | 82 | 1011.9 |
| 20260507040214 | 62 | 315 | 1.7 | 1.7 | 0.00 | 0.00 | 0.00 | 82 | 1012.0 |
| 20260507035504 | 62 | 315 | 1.7 | 1.7 | 0.00 | 0.00 | 0.00 | 81 | 1012.2 |
| 20260507035003 | 62 | 321 | 1.7 | 1.7 | 0.00 | 0.00 | 0.00 | 81 | 1012.3 |
| 20260507034504 | 62 | 349 | 1.7 | 1.7 | 0.00 | 0.00 | 0.00 | 81 | 1012.3 |
| 20260507034003 | 62 | 337 | 2.6 | 3.5 | 0.00 | 0.00 | 0.00 | 81 | 1012.6 |
| 20260507033503 | 62 | 320 | 3.5 | 3.5 | 0.00 | 0.00 | 0.00 | 80 | 1012.8 |
| 20260507033003 | 63 | 320 | 2.6 | 3.5 | 0.00 | 0.00 | 0.00 | 81 | 1012.5 |
| 20260507032503 | 63 | 341 | 1.7 | 1.7 | 0.00 | 0.00 | 0.00 | 81 | 1012.5 |
| 20260507032213 | 62 | 342 | 1.7 | 1.7 | 0.00 | 0.00 | 0.00 | 81 | 1012.6 |
| 20260507031504 | 62 | 336 | 1.7 | 1.7 | 0.00 | 0.00 | 0.00 | 81 | 1012.4 |
| 20260507031003 | 62 | 286 | 0.9 | 1.7 | 0.00 | 0.00 | 0.00 | 82 | 1012.3 |
| 20260507030505 | 62 | 274 | 0.9 | 1.7 | 0.00 | 0.00 | 0.00 | 82 | 1012.3 |
| 20260507030003 | 62 | 312 | 0.9 | 1.7 | 0.00 | 0.00 | 0.00 | 83 | 1012.4 |
| 20260507025713 | 62 | 324 | 0.9 | 1.7 | 0.00 | 0.00 | 0.00 | 83 | 1012.4 |
| 20260507025004 | 62 | 177 | 1.7 | 2.6 | 0.00 | 0.00 | 0.00 | 83 | 1012.7 |
| 20260507024504 | 62 | 182 | 2.6 | 6.1 | 0.00 | 0.00 | 0.00 | 84 | 1012.7 |
| 20260507024003 | 62 | 183 | 3.5 | 6.1 | 0.00 | 0.00 | 0.00 | 85 | 1012.7 |
| 20260507023503 | 62 | 167 | 4.3 | 6.1 | 0.00 | 0.00 | 0.00 | 86 | 1012.7 |
| 20260507023218 | 63 | 170 | 4.3 | 6.1 | 0.00 | 0.00 | 0.00 | 86 | 1012.6 |
| 20260507022504 | 63 | 169 | 4.3 | 6.1 | 0.00 | 0.00 | 0.00 | 86 | 1012.4 |
| 20260507022003 | 63 | 148 | 4.3 | 6.1 | 0.00 | 0.00 | 0.00 | 87 | 1012.5 |
| 20260507021504 | 63 | 164 | 4.3 | 5.2 | 0.00 | 0.00 | 0.00 | 87 | 1012.4 |
| 20260507021004 | 63 | 304 | 3.5 | 5.2 | 0.00 | 0.00 | 0.00 | 87 | 1012.5 |
| 20260507020718 | 63 | 322 | 3.5 | 3.5 | 0.00 | 0.00 | 0.00 | 89 | 1012.6 |
| 20260507020003 | 63 | 72 | 4.3 | 6.1 | 0.00 | 0.00 | 0.00 | 89 | 1012.9 |
| 20260507015503 | 63 | 85 | 4.3 | 6.1 | 0.00 | 0.00 | 0.00 | 90 | 1012.9 |
| 20260507015217 | 63 | 81 | 3.5 | 6.1 | 0.00 | 0.00 | 0.00 | 90 | 1013.0 |
| 20260507014504 | 63 | 310 | 1.7 | 2.6 | 0.00 | 0.00 | 0.00 | 91 | 1013.0 |
| 20260507014003 | 63 | 267 | 0.9 | 2.6 | 0.00 | 0.00 | 0.00 | 92 | 1013.1 |
| 20260507013503 | 63 | 263 | 0.9 | 2.6 | 0.00 | 0.00 | 0.00 | 92 | 1012.8 |
| 20260507013003 | 63 | 270 | 1.7 | 2.6 | 0.00 | 0.00 | 0.00 | 92 | 1013.2 |
| 20260507012504 | 63 | 270 | 1.7 | 2.6 | 0.00 | 0.00 | 0.00 | 92 | 1013.3 |
| 20260507012003 | 63 | 270 | 1.7 | 1.7 | 0.00 | 0.00 | 0.00 | 92 | 1013.3 |
| 20260507011504 | 63 | 270 | 0.9 | 1.7 | 0.00 | 0.00 | 0.00 | 92 | 1013.1 |
| 20260507011003 | 63 | 270 | 0.9 | 0.9 | 0.00 | 0.00 | 0.00 | 92 | 1013.3 |
| 20260507010504 | 63 | 276 | 1.7 | 2.6 | 0.00 | 0.00 | 0.00 | 92 | 1013.3 |
| 20260507010004 | 63 | 287 | 1.7 | 2.6 | 0.00 | 0.00 | 0.00 | 93 | 1013.1 |
| 20260507005503 | 63 | 324 | 0.9 | 1.7 | 0.00 | 0.00 | 0.00 | 93 | 1013.4 |
| 20260507005004 | 63 | 358 | 0.9 | 0.9 | 0.00 | 0.00 | 0.00 | 93 | 1013.1 |
| 20260507004503 | 63 | 342 | 0.9 | 2.6 | 0.00 | 0.00 | 0.00 | 93 | 1013.2 |
| 20260507004003 | 63 | 324 | 1.7 | 2.6 | 0.00 | 0.00 | 0.00 | 92 | 1013.2 |
| 20260507003504 | 63 | 321 | 1.7 | 2.6 | 0.00 | 0.00 | 0.00 | 92 | 1013.5 |
| 20260507003003 | 63 | 318 | 1.7 | 2.6 | 0.00 | 0.00 | 0.00 | 92 | 1013.5 |
| 20260507002717 | 63 | 312 | 1.7 | 2.6 | 0.00 | 0.00 | 0.00 | 92 | 1013.7 |
| 20260507002003 | 63 | 312 | 2.6 | 3.5 | 0.00 | 0.00 | 0.00 | 92 | 1013.9 |
| 20260507001503 | 63 | 310 | 2.6 | 3.5 | 0.00 | 0.00 | 0.00 | 92 | 1013.8 |
| 20260507001004 | 63 | 311 | 1.7 | 2.6 | 0.00 | 0.00 | 0.00 | 92 | 1013.8 |
| 20260507000503 | 63 | 298 | 1.7 | 2.6 | 0.00 | 0.00 | 0.00 | 92 | 1014.1 |
| 20260507000005 | 63 | 305 | 2.6 | 3.5 | 0.00 | 0.00 | 0.00 | 92 | 1013.9 |
| 20260506235503 | 63 | 320 | 2.6 | 3.5 | 0.00 | 0.00 | 0.00 | 92 | 1014.1 |
| 20260506235003 | 63 | 319 | 2.6 | 3.5 | 0.00 | 0.00 | 0.00 | 92 | 1014.1 |
| 20260506234504 | 63 | 317 | 2.6 | 3.5 | 0.00 | 0.00 | 0.00 | 92 | 1013.9 |
| 20260506234003 | 63 | 321 | 3.5 | 4.3 | 0.00 | 0.00 | 0.00 | 92 | 1014.3 |
| 20260506233717 | 63 | 324 | 3.5 | 4.3 | 0.00 | 0.00 | 0.00 | 92 | 1014.1 |
| 20260506233215 | 63 | 320 | 3.5 | 4.3 | 0.00 | 0.00 | 0.00 | 91 | 1014.2 |
| 20260506232713 | 63 | 314 | 2.6 | 4.3 | 0.00 | 0.00 | 0.00 | 91 | 1014.2 |
| 20260506232003 | 63 | 307 | 2.6 | 3.5 | 0.00 | 0.00 | 0.00 | 91 | 1014.2 |
| 20260506231503 | 63 | 303 | 1.7 | 2.6 | 0.00 | 0.00 | 0.00 | 91 | 1014.4 |
| 20260506231217 | 63 | 305 | 1.7 | 2.6 | 0.00 | 0.00 | 0.00 | 91 | 1014.1 |
| 20260506230504 | 63 | 311 | 1.7 | 2.6 | 0.00 | 0.00 | 0.00 | 91 | 1014.2 |
| 20260506230218 | 63 | 314 | 1.7 | 2.6 | 0.00 | 0.00 | 0.00 | 91 | 1014.1 |
| 20260506225716 | 63 | 315 | 1.7 | 2.6 | 0.00 | 0.00 | 0.00 | 91 | 1013.9 |
| 20260506225003 | 63 | 303 | 1.7 | 3.5 | 0.00 | 0.00 | 0.00 | 91 | 1014.3 |
| 20260506224503 | 63 | 300 | 2.6 | 3.5 | 0.00 | 0.00 | 0.00 | 91 | 1014.5 |
| 20260506224003 | 63 | 301 | 2.6 | 3.5 | 0.00 | 0.00 | 0.00 | 91 | 1014.8 |
| 20260506223718 | 63 | 287 | 2.6 | 4.3 | 0.00 | 0.00 | 0.00 | 90 | 1014.6 |
| 20260506223004 | 63 | 288 | 3.5 | 4.3 | 0.00 | 0.00 | 0.00 | 90 | 1014.9 |
| 20260506222713 | 64 | 296 | 3.5 | 3.5 | 0.00 | 0.00 | 0.00 | 90 | 1014.9 |
| 20260506222216 | 64 | 312 | 2.6 | 3.5 | 0.00 | 0.00 | 0.00 | 90 | 1014.6 |
| 20260506221504 | 64 | 315 | 4.3 | 7.0 | 0.00 | 0.00 | 0.00 | 90 | 1014.1 |
| 20260506221003 | 64 | 315 | 6.1 | 7.0 | 0.00 | 0.00 | 0.00 | 90 | 1014.4 |
| 20260506220715 | 64 | 317 | 6.1 | 7.0 | 0.00 | 0.00 | 0.00 | 90 | 1014.4 |
| 20260506220004 | 64 | 334 | 4.3 | 7.0 | 0.00 | 0.00 | 0.00 | 90 | 1014.4 |
| 20260506215503 | 64 | 335 | 4.3 | 5.2 | 0.00 | 0.00 | 0.00 | 90 | 1014.3 |
| 20260506215003 | 64 | 322 | 4.3 | 5.2 | 0.00 | 0.00 | 0.00 | 90 | 1014.4 |
| 20260506214503 | 64 | 324 | 5.2 | 5.2 | 0.00 | 0.00 | 0.00 | 89 | 1014.4 |
| 20260506214004 | 64 | 342 | 5.2 | 8.7 | 0.00 | 0.00 | 0.00 | 87 | 1014.3 |
| 20260506213503 | 64 | 337 | 6.1 | 8.7 | 0.00 | 0.00 | 0.00 | 85 | 1014.5 |
| 20260506213003 | 64 | 321 | 5.2 | 7.8 | 0.00 | 0.00 | 0.00 | 82 | 1014.7 |
| 20260506212503 | 64 | 316 | 7.0 | 10.4 | 0.00 | 0.00 | 0.00 | 80 | 1014.7 |
| 20260506212003 | 65 | 317 | 7.8 | 10.4 | 0.00 | 0.00 | 0.00 | 75 | 1014.7 |
| 20260506211715 | 65 | 321 | 6.1 | 7.8 | 0.00 | 0.00 | 0.00 | 72 | 1014.7 |
| 20260506211003 | 65 | 325 | 4.3 | 6.1 | 0.00 | 0.00 | 0.00 | 64 | 1014.6 |
| 20260506210503 | 65 | 319 | 4.3 | 6.1 | 0.00 | 0.00 | 0.00 | 61 | 1014.9 |
| 20260506210003 | 65 | 317 | 4.3 | 6.1 | 0.00 | 0.00 | 0.00 | 60 | 1014.7 |
| 20260506205717 | 65 | 319 | 4.3 | 6.1 | 0.00 | 0.00 | 0.00 | 60 | 1014.8 |
| 20260506205005 | 66 | 333 | 3.5 | 3.5 | 0.00 | 0.00 | 0.00 | 61 | 1014.6 |
| 20260506204503 | 66 | 337 | 3.5 | 3.5 | 0.00 | 0.00 | 0.00 | 61 | 1014.6 |
| 20260506204216 | 66 | 332 | 2.6 | 3.5 | 0.00 | 0.00 | 0.00 | 60 | 1014.5 |
| 20260506203714 | 66 | 329 | 1.7 | 3.5 | 0.00 | 0.00 | 0.00 | 60 | 1014.4 |
| 20260506203217 | 66 | 8 | 0.9 | 1.7 | 0.00 | 0.00 | 0.00 | 58 | 1014.1 |
| 20260506202503 | 66 | 13 | 0.9 | 1.7 | 0.00 | 0.00 | 0.00 | 57 | 1014.1 |
| 20260506202003 | 66 | 20 | 1.7 | 1.7 | 0.00 | 0.00 | 0.00 | 57 | 1014.3 |
| 20260506201715 | 66 | 33 | 1.7 | 1.7 | 0.00 | 0.00 | 0.00 | 57 | 1014.0 |
| 20260506201004 | 66 | 159 | 1.7 | 1.7 | 0.00 | 0.00 | 0.00 | 57 | 1014.2 |
| 20260506200504 | 66 | 157 | 2.6 | 2.6 | 0.00 | 0.00 | 0.00 | 56 | 1014.2 |
| 20260506200004 | 66 | 82 | 2.6 | 4.3 | 0.00 | 0.00 | 0.00 | 56 | 1014.0 |
| 20260506195508 | 66 | 67 | 2.6 | 5.2 | 0.00 | 0.00 | 0.00 | 55 | 1013.9 |
| 20260506195003 | 66 | 66 | 2.6 | 5.2 | 0.00 | 0.00 | 0.00 | 54 | 1014.0 |
| 20260506194503 | 66 | 41 | 2.6 | 3.5 | 0.00 | 0.00 | 0.00 | 54 | 1013.9 |
| 20260506194216 | 66 | 119 | 3.5 | 4.3 | 0.00 | 0.00 | 0.00 | 54 | 1014.0 |
| 20260506193714 | 66 | 176 | 3.5 | 5.2 | 0.00 | 0.00 | 0.00 | 53 | 1013.8 |
| 20260506193004 | 66 | 39 | 3.5 | 5.2 | 0.00 | 0.00 | 0.00 | 54 | 1013.4 |
| 20260506192504 | 66 | 44 | 3.5 | 4.3 | 0.00 | 0.00 | 0.00 | 55 | 1013.4 |
| 20260506192003 | 66 | 114 | 3.5 | 5.2 | 0.00 | 0.00 | 0.00 | 54 | 1013.6 |
| 20260506191716 | 66 | 102 | 3.5 | 5.2 | 0.00 | 0.00 | 0.00 | 54 | 1013.5 |
| 20260506191214 | 67 | 21 | 3.5 | 5.2 | 0.00 | 0.00 | 0.00 | 54 | 1013.7 |
| 20260506190504 | 66 | 32 | 2.6 | 5.2 | 0.00 | 0.00 | 0.00 | 54 | 1013.5 |
| 20260506190004 | 66 | 54 | 1.7 | 3.5 | 0.00 | 0.00 | 0.00 | 55 | 1013.5 |
| 20260506185504 | 66 | 186 | 0.9 | 2.6 | 0.00 | 0.00 | 0.00 | 57 | 1013.7 |
| 20260506185004 | 66 | 199 | 1.7 | 2.6 | 0.00 | 0.00 | 0.00 | 57 | 1013.5 |
| 20260506184504 | 66 | 32 | 2.6 | 3.5 | 0.00 | 0.00 | 0.00 | 57 | 1013.5 |
| 20260506184003 | 66 | 55 | 2.6 | 3.5 | 0.00 | 0.00 | 0.00 | 60 | 1013.6 |
| 20260506183504 | 66 | 79 | 2.6 | 3.5 | 0.00 | 0.00 | 0.00 | 60 | 1013.4 |
| 20260506183004 | 66 | 82 | 2.6 | 3.5 | 0.00 | 0.00 | 0.00 | 61 | 1013.3 |
| 20260506182504 | 66 | 54 | 2.6 | 3.5 | 0.00 | 0.00 | 0.00 | 62 | 1013.5 |
| 20260506182003 | 66 | 115 | 2.6 | 3.5 | 0.00 | 0.00 | 0.00 | 63 | 1013.5 |
| 20260506181717 | 66 | 91 | 2.6 | 4.3 | 0.00 | 0.00 | 0.00 | 64 | 1013.4 |
| 20260506181004 | 66 | 52 | 2.6 | 4.3 | 0.00 | 0.00 | 0.00 | 66 | 1013.5 |
| 20260506180504 | 66 | 81 | 2.6 | 4.3 | 0.00 | 0.00 | 0.00 | 70 | 1013.6 |
| 20260506180216 | 66 | 88 | 2.6 | 4.3 | 0.00 | 0.00 | 0.00 | 70 | 1013.6 |
| 20260506175503 | 66 | 114 | 3.5 | 6.1 | 0.00 | 0.00 | 0.00 | 71 | 1013.6 |
| 20260506175004 | 66 | 111 | 5.2 | 6.1 | 0.00 | 0.00 | 0.00 | 71 | 1013.4 |
| 20260506174503 | 66 | 109 | 5.2 | 7.0 | 0.00 | 0.00 | 0.00 | 72 | 1013.5 |
| 20260506174003 | 66 | 360 | 5.2 | 7.0 | 0.00 | 0.00 | 0.00 | 72 | 1013.2 |
| 20260506173503 | 66 | 358 | 5.2 | 8.7 | 0.00 | 0.00 | 0.00 | 72 | 1013.3 |
| 20260506173004 | 66 | 157 | 6.1 | 8.7 | 0.00 | 0.00 | 0.00 | 72 | 1013.4 |
| 20260506172503 | 66 | 218 | 6.1 | 8.7 | 0.00 | 0.00 | 0.00 | 73 | 1013.6 |
| 20260506172214 | 66 | 250 | 5.2 | 8.7 | 0.00 | 0.00 | 0.00 | 73 | 1013.5 |
| 20260506171503 | 66 | 112 | 5.2 | 6.1 | 0.00 | 0.00 | 0.00 | 73 | 1013.4 |
| 20260506171004 | 66 | 88 | 4.3 | 7.0 | 0.00 | 0.00 | 0.00 | 72 | 1013.5 |
| 20260506170505 | 65 | 78 | 5.2 | 7.8 | 0.00 | 0.00 | 0.00 | 72 | 1013.3 |
| 20260506170004 | 66 | 82 | 6.1 | 7.8 | 0.00 | 0.00 | 0.00 | 72 | 1013.1 |
| 20260506165504 | 66 | 79 | 5.2 | 7.8 | 0.00 | 0.00 | 0.00 | 72 | 1013.3 |
| 20260506165004 | 66 | 53 | 4.3 | 6.1 | 0.00 | 0.00 | 0.00 | 72 | 1013.2 |
| 20260506164504 | 66 | 62 | 5.2 | 7.0 | 0.00 | 0.00 | 0.00 | 72 | 1013.1 |
| 20260506164004 | 66 | 78 | 4.3 | 7.0 | 0.00 | 0.00 | 0.00 | 72 | 1013.2 |
| 20260506163503 | 66 | 91 | 4.3 | 7.0 | 0.00 | 0.00 | 0.00 | 71 | 1013.3 |
| 20260506163004 | 66 | 99 | 5.2 | 7.8 | 0.00 | 0.00 | 0.00 | 71 | 1013.3 |